EHI
0 0 0 0 0 0 0 0 0 0 0 0 0 0 0 0 0 0 0 0 0 0 0 0 0 0 0 0 0 0 0 0 0 0 0 0 0 0
0 0 0 0 0 0 0 0 0 0 0 0 0 0 0 0 0 0 0 0 0 0 0 0 0 0 0 0 0 0 0 0 0 0 0 0 0 0
0 0 0 0 0 0 0 0 0 0 0 0 0 0 0 0 0 0 0 0 0 0 0 0 0 0 0 0 0 0 0 0 0 0 0 0 0 0
0 0 0 0 0 0 0 0 0 0 0 0 0 0 0 0 0 0 0 0 0 0 0 0 0 0 0 0 0 0 0 0 0 0 0 0 0 0
0 0 0 0 0 0 0 0 0 0 0 0 0 0 0 0 0 0 0 0 0 0 0 0 0 0 0 0 0 0 0 0 0 0 0 0 0 0
0 0 0 0 0 0 0 0 0 0 0 0 0 0 0 0 0 0 0 0 0 0 0 0 0 0 0 0 0 0 0 0 0 0 0 0 0 0
0 0 0 0 0 0 0 0 0 0 0 0 0 0 0 0 0 0 0 0 0 0 0 0 0 0 0 0 0 0 0 0 0 0 0 0 0 0
0 0 0 0 0 0 0 0 0 0 0 0 0 0 0 0 0 0 0 0 0 0 0 0 0 0 0 0 0 0 0 0 0 0 0 0 0 0
0 0 0 0 0 0 0 0 0 0 0 0 0 0 0 0 0 0 0 0 0 0 0 0 0 0 0 0 0 0 0 0 0 0 0 0 0 0
0 0 0 0 0 0 0 0 0 0 0 0 0 0 0 0 0 0 0 0 0 0 0 0 0 0 0 0 0 0 0 0 0 0 0 0 0 0
0 0 0 0 0 0 0 0 0 0 0 0 0 0 0 0 0 0 0 0 0 0 0 0 0 0 0 0 0 0 0 0 0 0 0 0 0 0
0 0 0 0 0 0 0 0 0 0 0 0 0 0 0 0 0 0 0 0 0 0 0 0 0 0 0 0 0 0 0 0 0 0 0 0 0 0
0 0 0 0 0 0 0 0 0 0 0 0 0 0 0 0 0 0 0 0 0 0 0 0 0 0 0 0 0 0 0 0 0 0 0 0 0 0
0 0 0 0 0 0 0 0 0 0 0 0 0 0 0 0 0 0 0 0 0 0 0 0 0 0 0 0 0 0 0 0 0 0 0 0 0 0
0 0 0 0 0 0 0 0 0 0 0 0 0 0 0 0 0 0 0 0 0 0 0 0 0 0 0 0 0 0 0 0 0 0 0 0 0 0
0 0 0 0 0 0 0 0 0 0 0 0 0 0 0 0 0 0 0 0 0 0 0 0 0 0 0 0 0 0 0 0 0 0 0 0 0 0
0 0 0 0 0 0 0 0 0 0 0 0 0 0 0 0 0 0 0 0 0 0 0 0 0 0 0 0 0 0 0 0 0 0 0 0 0 0
0 0 0 0 0 0 0 0 0 0 0 0 0 0 0 0 0 0 0 0 0 0 0 0 0 0 0 0 0 0 0 0 0 0 0 0 0 0
0 0 0 0 0 0 0 0 0 0 0 0 0 0 0 0 0 0 0 0 0 0 0 0 0 0 0 0 0 0 0 0 0 0 0 0 0 0
0 0 0 0 0 0 0 0 0 0 0 0 0 0 0 0 0 0 0 0 0 0 0 0 0 0 0 0 0 0 0 0 0 0 0 0 0 0
0 0 0 0 0 0 0 0 0 0 0 0 0 0 0 0 0 0 0 0 0 0 0 0 0 0 0 0 0 0 0 0 0 0 0 0 0 0
0 0 0 0 0 0 0 0 0 0 0 0 0 0 0 0 0 0 0 0 0 0 0 0 0 0 0 0 0 0 0 0 0 0 0 0 0 0
0 0 0 0 0 0 0 0 0 0 0 0 0 0 0 0 0 0 0 0 0 0 0 0 0 0 0 0 0 0 0 0 0 0 0 0 0 0
Wind_Speed
2 1 1 0 1 1 1 2 3 2 1 1 0 0 1 1 2 1 1 1 1 2 2 2 1 1 1 2 2 2 2 3 3 4 5 6 7 8
2 2 1 1 1 1 1 1 1 2 2 1 0 0 1 1 2 1 0 0 1 2 2 2 1 1 1 1 2 2 2 3 4 4 6 6 7 8
2 3 2 2 1 1 1 1 1 1 1 0 0 0 1 1 1 0 0 0 1 2 2 2 2 2 1 1 1 2 2 3 4 5 6 7 8 9
3 3 2 2 2 1 1 1 1 1 2 2 0 0 0 1 1 0 1 1 1 1 1 1 2 2 2 2 2 2 2 3 4 5 7 8 8 9
3 4 3 3 2 1 2 1 1 1 1 2 1 0 0 0 0 1 1 1 1 1 1 1 2 3 3 3 3 3 3 4 5 6 7 8 9 10
3 3 3 3 3 3 2 2 2 1 1 1 1 0 0 0 1 1 1 1 1 1 1 2 3 4 4 4 4 4 4 5 6 7 7 8 9 10
3 2 2 3 3 3 2 2 3 2 2 1 1 0 1 1 1 1 1 1 1 1 0 1 2 2 3 4 4 5 5 6 6 7 8 9 10 10
4 3 2 3 3 4 3 3 3 4 3 2 1 2 2 1 1 1 1 0 1 1 0 3 1 2 2 2 5 7 7 7 7 8 9 9 10 11
4 3 2 2 3 3 3 3 2 2 3 3 3 3 2 2 2 1 1 1 2 2 1 3 2 3 3 4 7 7 7 8 8 9 10 10 11 11
3 4 4 3 3 4 3 3 2 1 0 1 2 2 1 1 2 2 2 1 1 1 0 2 2 2 3 3 7 7 7 8 9 10 10 11 11 12
3 3 4 3 4 5 4 3 2 1 2 2 1 1 1 2 1 0 0 0 2 2 1 1 1 2 3 3 4 6 7 8 10 11 11 12 12 12
2 2 3 4 4 4 3 3 2 1 1 1 1 2 1 1 2 1 2 2 1 2 1 1 1 2 3 2 2 3 4 7 10 11 12 12 12 7
3 2 2 4 4 4 3 3 3 2 1 1 0 0 1 1 1 1 1 2 2 3 2 1 1 1 3 4 4 3 3 3 4 6 9 12 12 9
3 2 3 4 4 4 3 3 3 2 1 1 0 1 1 1 1 1 1 1 2 3 3 2 2 3 3 4 5 3 3 3 4 4 4 9 10 12
2 4 4 3 3 2 3 3 2 1 1 1 2 2 2 2 1 1 1 1 2 2 2 2 3 3 3 4 5 4 5 4 3 3 4 5 5 5
2 3 3 2 2 2 2 1 1 2 2 2 2 2 1 1 1 1 1 2 2 3 2 2 3 4 4 5 5 6 4 4 4 4 5 5 5 4
2 1 1 2 2 1 1 1 1 1 2 2 2 1 1 1 1 1 1 2 2 3 3 2 2 3 5 5 5 5 5 5 5 4 5 7 6 5
2 2 2 3 3 3 2 2 2 2 2 2 2 2 2 2 2 2 2 2 3 4 3 3 3 3 3 4 6 6 5 5 5 5 4 6 8 6
2 2 2 3 3 3 2 2 2 2 2 2 2 2 2 2 2 2 2 3 3 4 3 3 2 2 4 6 4 5 4 5 5 5 4 5 8 8
1 2 2 2 2 3 3 3 2 2 2 2 2 3 3 3 3 3 3 3 4 4 4 3 3 3 5 6 6 5 6 5 5 6 6 6 6 9
1 2 2 2 2 2 3 3 3 2 3 3 3 3 3 3 3 3 3 5 5 4 5 4 4 5 3 3 5 6 4 5 7 6 6 6 7 6
2 2 2 2 2 3 3 3 3 3 3 3 3 3 3 3 3 4 3 4 4 4 5 4 3 3 3 5 6 7 7 6 6 9 9 8 6 6
2 2 2 2 2 2 2 3 3 3 3 3 3 3 3 3 3 3 3 4 4 4 4 4 3 3 4 5 6 6 7 7 6 6 6 8 12 14
Wind_Direction
158 153 150 119 107 120 132 152 156 177 217 214 62 37 112 116 120 119 109 41 2 353 344 333 331 0 2 353 338 337 340 336 332 327 325 325 323 322
147 142 150 120 110 108 131 139 141 162 184 193 169 178 74 94 95 104 154 30 328 317 321 330 314 306 302 313 334 339 329 327 325 321 319 317 315 316
148 147 154 142 130 131 124 115 103 113 163 235 29 92 83 83 45 38 327 279 271 292 302 315 317 314 309 315 322 319 309 311 316 316 315 312 312 312
160 148 151 139 132 137 121 117 128 141 151 172 228 34 23 173 136 55 317 312 286 294 289 298 298 313 311 306 300 297 299 305 312 315 311 309 308 308
159 159 163 149 151 151 129 135 149 112 130 154 177 3 316 158 137 256 264 282 285 286 294 304 310 316 311 305 298 292 298 302 307 309 308 307 306 306
146 155 163 161 164 160 151 146 130 117 114 120 132 242 332 226 175 220 271 255 274 301 324 324 316 308 300 294 288 285 289 295 301 302 304 306 306 305
135 133 139 149 157 161 155 153 151 158 147 145 161 209 228 211 226 232 234 258 289 256 282 293 290 277 277 280 281 278 282 287 294 297 300 303 303 302
144 140 136 141 141 138 139 153 171 178 175 176 193 216 242 236 235 224 192 251 284 288 294 288 269 267 268 259 283 288 286 291 293 295 298 300 301 301
151 150 144 136 139 129 122 124 134 187 197 188 189 218 239 247 219 202 202 229 255 267 285 280 277 271 275 282 287 290 294 295 295 299 300 300 300 301
143 144 142 140 145 139 132 117 101 63 174 179 186 215 234 249 230 218 205 225 277 288 235 263 271 271 289 279 279 285 296 301 302 302 301 300 301 302
131 136 144 143 150 146 132 126 117 91 64 86 82 46 3 331 311 57 155 222 285 283 263 229 276 300 290 274 274 285 296 300 300 299 299 302 304 304
128 134 150 157 157 155 143 143 152 177 109 47 15 352 346 331 312 230 213 219 261 270 249 218 280 331 305 282 279 290 292 294 300 302 302 302 304 303
153 158 160 163 168 168 168 162 181 187 155 150 192 348 353 333 317 299 256 227 230 248 239 208 268 279 268 292 297 282 275 286 295 296 298 299 300 300
161 166 161 164 170 176 189 187 191 198 161 155 201 259 262 270 278 282 276 260 246 247 243 224 240 251 269 284 288 293 294 289 288 289 288 294 294 294
155 158 161 165 166 172 188 201 202 188 181 200 223 239 235 237 251 298 311 303 309 291 262 245 237 247 252 264 276 283 296 290 272 281 289 291 289 290
137 143 150 167 176 179 192 211 200 192 201 216 221 230 223 225 255 273 289 297 295 296 285 261 248 244 257 261 264 274 274 274 284 287 289 288 283 273
156 143 153 169 178 191 194 191 191 200 223 226 217 220 236 259 271 266 272 279 271 280 296 302 282 266 254 252 264 265 270 273 273 286 293 293 286 278
170 184 196 196 198 201 201 206 208 212 219 221 220 221 230 245 263 271 269 264 270 277 281 290 306 313 304 273 240 255 264 272 282 282 279 289 292 290
196 198 206 208 205 204 209 213 222 222 215 220 227 230 233 242 254 261 265 269 270 271 272 269 266 271 290 293 277 228 258 283 289 288 278 277 286 292
210 210 214 214 213 212 215 219 223 223 224 228 231 232 231 238 246 252 254 261 269 274 275 264 248 246 260 275 284 283 260 262 279 286 291 289 282 285
228 234 228 219 217 217 222 222 221 224 225 225 229 228 227 230 242 248 254 266 269 268 268 267 263 274 271 274 280 284 278 262 269 278 289 294 297 296
228 230 236 234 223 218 218 219 223 226 225 228 232 232 231 232 240 247 252 257 259 263 270 275 274 273 262 265 276 287 296 299 287 281 274 268 277 283
229 231 232 231 231 227 222 219 221 228 230 228 228 231 234 240 245 247 253 258 263 265 273 279 280 272 268 268 275 283 289 298 303 304 290 283 284 283